Regional Weather Roundup
Issued by NWS

Home | Current Version | Previous Version | Text Only | Print | Product List | Glossary Off
Versions: 1 2 3 4 5 6 7 8 9 10 11 12 13 14 15 16 17 18 19 20 21 22 23 24 25 26 27 28 29 30 31 32 33 34 35 36 37 38 39 40 41 42 43 44 45 46 47 48 49 50

602
ASUS45 KBOU 202007
RWRCO

WEATHER ROUNDUP FOR COLORADO
NATIONAL WEATHER SERVICE DENVER/BOULDER CO
100 PM MST FRI JAN 20 2017

NOTE: "FAIR" INDICATES FEW OR NO CLOUDS BELOW 12000 FEET WITH NO
SIGNIFICANT WEATHER AND/OR OBSTRUCTIONS TO VISIBILITY.

COZ001>005-013-030-031-202100-
...NORTHWEST COLORADO...

CITY           SKY/WX    TMP DP  RH WIND       PRES   REMARKS
CRAIG          CLOUDY    29  24  82 SW6       29.53F WCI  23
HAYDEN         CLOUDY    28  21  74 W7        29.52F WCI  21
MEEKER         LGT SNOW  27  25  92 S6        29.53F FOG     WCI  20
MOUNT WERNER   NOT AVBL
STEAMBOAT SPGS CLOUDY    29  24  78 CALM      29.51F
WALDEN           N/A     28  19  69 SW8       29.48F WCI  20
$$

COZ006>008-011-202100-
...WEST CENTRAL VALLEYS...

CITY           SKY/WX    TMP DP  RH WIND       PRES   REMARKS
GRAND JUNCTION CLOUDY    36  34  92 NW8       29.57F
MONTROSE       CLOUDY    38  24  57 N5        29.58F
EAGLE          CLOUDY    36  23  60 SW20G25   29.52F
RIFLE          CLOUDY    37  30  75 W18G25    29.53F
DELTA          CLOUDY    39  33  78 NE6       29.58F
NUCLA          CLOUDY    36  27  69 S6        29.64F
$$

COZ017>023-064>068-202100-
...SOUTHWEST COLORADO...

CITY           SKY/WX    TMP DP  RH WIND       PRES   REMARKS
DURANGO        FAIR      31  22  69 SW16      29.63F WCI  20
CORTEZ         FLURRIES  34  29  82 S9        29.65F WCI  27
PAGOSA SPRINGS LGT SNOW  29  22  76 SW8       29.62F WCI  21
TELLURIDE      CLOUDY    30  13  50 CALM      29.57F
WOLF CREEK PAS CLOUDY    10  10 100 S30G40    29.55F WCI -12
$$

COZ009-010-012-014-032>034-037-058>063-202100-
...CENTRAL COLORADO...

CITY           SKY/WX    TMP DP  RH WIND       PRES   REMARKS
ASPEN          PTSUNNY   29  23  78 N8        29.48F WCI  21
BUENA VISTA    FAIR      33  13  43 W20G29    29.43F WCI  22
COPPER MTN     LGT SNOW  19  14  79 MISG      29.45F
BERTHOUD PASS  NOT AVBL
COTTONWOOD PAS FAIR      32   9  37 SW28G38   29.42F WCI  18
GUNNISON       CLOUDY    22  15  75 E9        29.54F WCI  12
KREMMLING      LGT SNOW  32  23  69 CALM      29.51F
LEADVILLE      CLOUDY    24  11  57 N15G23    29.44F WCI  11
MONARCH PASS   CLOUDY    12   9  85 W21G33    29.56F WCI  -6
SALIDA         FAIR      37  17  44 W21G33    29.53F
SUNLIGHT       SNOW      18  16  93 MISG      29.53F VSB<1/4
WILKERSON PASS PTSUNNY   19  16  86 W8        29.43F WCI   9
$$

COZ069>075-202100-
...SAN LUIS VALLEY/SANGRE DE CRISTO MOUNTAINS...

CITY           SKY/WX    TMP DP  RH WIND       PRES   REMARKS
ALAMOSA        FAIR      32  17  54 SE5       29.53F WCI  27
LA VETA PASS   FAIR      23  18  80 NE37G58   29.43F HAZE    WCI   4
SAGUACHE       PTSUNNY   27  21  80 CALM      29.55F
$$

COZ035-036-038>040-202100-
...NORTHERN COLORADO FRONT RANGE...

CITY           SKY/WX    TMP DP  RH WIND       PRES   REMARKS
DENVER INTL AP PTSUNNY   41  30  65 SW8       29.37F
DMNS CITY PARK   N/A     43  27  52 SE12      29.37S
AURORA         PTSUNNY   40  30  65 S10       29.37F
FRONT RANGE AP PTSUNNY   43  32  65 S7        29.38F
ERIE MUNI ARPT FAIR      45  29  53 S7        29.37F
BOULDER MUN AP FAIR      43  28  56 SE5       29.35F
CENTENNIAL     PTSUNNY   38  29  70 S10       29.37F
BROOMFIELD     PTSUNNY   45  28  53 S7        29.37
FORT COLLINS   FAIR      45  28  53 S6        29.37F
LONGMONT       FAIR      48  30  48 SE7       29.38F
$$

COZ041-046-047-076>085-087-088-202100-
...PIKES PEAK/PALMER DIVIDE AND SOUTHERN FOOTHILLS...

CITY           SKY/WX    TMP DP  RH WIND       PRES   REMARKS
COLO. SPRINGS  PTSUNNY   34  31  88 E3        29.41F
A. F. ACADEMY  PTSUNNY   38  28  68 SE6       29.38F
SCHRIEVER AFB  NOT AVBL
ELLICOTT       PTSUNNY  N/A N/A N/A CALM      29.40F
FALCON         CLOUDY    33  31  91 CALM      29.42F
FORT CARSON    NOT AVBL
LIMON          LGT SNOW  33  33 100 W10       29.41F FOG     WCI  25
MONUMENT HILL  CLOUDY    32  27  80 CALM      29.41F
TRINIDAD       PTSUNNY   42  16  34 W10       29.41F
$$

COZ042>045-048>051-090-091-202100-
...NORTHEAST COLORADO...

CITY           SKY/WX    TMP DP  RH WIND       PRES   REMARKS
GREELEY ARPT   FAIR      45  29  53 VRB5      29.39F
AKRON          CLOUDY    38  31  76 W16       29.37F
BURLINGTON     LGT SNOW  34  32  92 NW14      29.40F VSB 3/4 WCI  25
WRAY           RAIN      41  34  75 W7        29.37F
STERLING       CLOUDY    43  34  70 W9        29.36F
HOLYOKE        FAIR      45  34  65 NW7       29.35F
FORT MORGAN    CLOUDY    41  31  65 W8        29.39F
$$

COZ086-089-092>099-202100-
...SOUTHEAST COLORADO...

CITY           SKY/WX    TMP DP  RH WIND       PRES   REMARKS
PUEBLO         CLOUDY    41  33  73 NE3       29.42F
LA JUNTA       CLOUDY    36  34  92 CALM      29.43F
LAMAR          CLOUDY    38  33  82 NW7       29.41F
SPRINGFIELD    NOT AVBL
$$




USA.gov is the U.S. government's official web portal to all federal, state and local government web resources and services.